Content
SEND FEEDBACK

Daily
Averages
Monthly
Summary
United States of America

PERU, VERMONT


Home > North America > United States > Vermont
Elevation: 1660 feet     Latitude: 43 14N     Longitude: 072 54W

WEATHER
 
SELECT A DAY
Number of Records: 460,653;   Date Range: 1/1/95 - 9/29/14
 
SHARE

PRINT THIS DATA

[ ← Previous Day ]
WEATHER ALMANAC - AUGUST 18, 2014
[ Next Day → ]
[ °C ]   °F
Weather ElementAverageHighLow
Temperature60.3 °F68 °F (10:35 am)51.8 °F (4:55 am)
Dewpoint51 °F55.4 °F (11:35 am)46.4 °F (9:55 am)
Humidity73.5 %94 % (12:15 am)46 % (3:55 pm)
Barometer29.88 in29.93 in (1:15 am)29.85 in (4:35 am)
Wind Speed5.9 mph13.8 mph (12:35 pm)
Wind Gust20.7 mph (1:55 am)
Weather ElementAverage
Visibility10 mi
Wind DirectionSSW (215.5 °)

Weather ElementTotal
Precipitation0.02 in
Heating Degree Days5.1 (Base 65)
Growing Degree Days9.9 (Base 50)
Averaged from 71 records on August 18, 2014
WEATHER CONDITIONS BREAKOUT
WIND DIRECTION BREAKOUT
WEATHER BY HOUR - AUGUST 18, 2014
[ °C ]   °F
Local TimeTemperatureDewpointHumidityBarometerVisibilityWind DirectionWind SpeedGust SpeedPrecipitationEventsConditions
12:15 AM57.2 °F55.4 °F94 %29.88 in10.0 miSSE (160°)3.5 mphOvercast
12:35 AM57.2 °F55.4 °F94 %29.88 in10.0 miCalmOvercast
12:55 AM57.2 °F55.4 °F94 %29.88 in10.0 miCalmOvercast
1:15 AM57.2 °F55.4 °F94 %29.87 in10.0 miCalmOvercast
1:35 AM57.2 °F53.6 °F88 %29.87 in10.0 miSSE (160°)3.5 mphOvercast
1:55 AM57.2 °F53.6 °F88 %29.87 in10.0 miSSW (200°)4.6 mphOvercast
2:15 AM57.2 °F53.6 °F88 %29.86 in10.0 miSouth (180°)4.6 mphOvercast
2:35 AM59.0 °F53.6 °F82 %29.86 in10.0 miSouth (190°)4.6 mphMostly Cloudy
2:55 AM57.2 °F55.4 °F94 %29.85 in10.0 miCalmMostly Cloudy
3:15 AM57.2 °F55.4 °F94 %29.85 in10.0 miCalmOvercast
3:35 AM57.2 °F55.4 °F94 %29.85 in10.0 miCalmOvercast
3:55 AM57.2 °F55.4 °F94 %29.85 in10.0 miCalmOvercast
4:15 AM57.2 °F55.4 °F94 %29.85 in10.0 miCalmOvercast
4:35 AM57.2 °F55.4 °F94 %29.85 in10.0 miCalmOvercast
4:55 AM57.2 °F55.4 °F94 %29.86 in9.0 miNorth (360°)3.5 mph0.02 inOvercast
5:15 AM57.2 °F55.4 °F94 %29.86 in10.0 miCalmOvercast
5:35 AM57.2 °F55.4 °F94 %29.87 in10.0 miCalmOvercast
5:55 AM57.2 °F55.4 °F94 %29.87 in10.0 miCalmOvercast
6:15 AM57.2 °F53.6 °F88 %29.87 in10.0 miCalmOvercast
6:35 AM55.4 °F53.6 °F94 %29.88 in10.0 miNorth (350°)3.5 mphOvercast
6:55 AM55.4 °F53.6 °F94 %29.88 in10.0 miNNW (330°)3.5 mphMostly Cloudy
7:15 AM57.2 °F55.4 °F94 %29.88 in10.0 miCalmPartly Cloudy
7:35 AM57.2 °F55.4 °F94 %29.89 in10.0 miNNW (340°)3.5 mphClear
7:55 AM57.2 °F51.8 °F82 %29.89 in10.0 miNorth (360°)5.8 mphPartly Cloudy
8:15 AM59.0 °F53.6 °F82 %29.89 in10.0 miNNE (30°)3.5 mphMostly Cloudy
8:35 AM60.8 °F53.6 °F77 %29.89 in10.0 miNNW (340°)3.5 mphOvercast
8:55 AM59.0 °F53.6 °F82 %29.90 in10.0 miNNW (330°)5.8 mphOvercast
9:15 AM60.8 °F51.8 °F72 %29.89 in10.0 miNorth (350°)8.1 mphMostly Cloudy
9:35 AM60.8 °F51.8 °F72 %29.90 in10.0 miNNW (340°)6.9 mphMostly Cloudy
9:55 AM62.6 °F51.8 °F68 %29.89 in10.0 miNNW (330°)6.9 mphPartly Cloudy
10:15 AM62.6 °F51.8 °F68 %29.90 in10.0 miNorth (10°)10.4 mphScattered Clouds
10:35 AM62.6 °F50.0 °F63 %29.90 in10.0 miNNW (330°)9.2 mph18.4 mphMostly Cloudy
10:55 AM62.6 °F50.0 °F63 %29.90 in10.0 miNorth (10°)12.7 mphMostly Cloudy
11:15 AM62.6 °F50.0 °F63 %29.90 in10.0 miNNW (330°)10.4 mphPartly Cloudy
11:35 AM62.6 °F51.8 °F68 %29.90 in10.0 miNorth (350°)10.4 mphClear
11:55 AM62.6 °F48.2 °F59 %29.90 in10.0 miNorth (350°)10.4 mphScattered Clouds
12:15 PM62.6 °F48.2 °F59 %29.89 in10.0 miNorth (360°)10.4 mphMostly Cloudy
12:35 PM64.4 °F48.2 °F56 %29.88 in10.0 miNW (320°)8.1 mphScattered Clouds
12:55 PM64.4 °F50.0 °F59 %29.88 in10.0 miNorth (360°)10.4 mphScattered Clouds
1:15 PM64.4 °F48.2 °F56 %29.88 in10.0 miNorth (360°)10.4 mphPartly Cloudy
1:35 PM66.2 °F48.2 °F52 %29.88 in10.0 miNorth (350°)9.2 mph19.6 mphPartly Cloudy
1:55 PM66.2 °F48.2 °F52 %29.88 in10.0 miNorth (360°)10.4 mph17.3 mphPartly Cloudy
2:15 PM66.2 °F46.4 °F49 %29.88 in10.0 miNorth (350°)6.9 mph18.4 mphScattered Clouds
2:35 PM66.2 °F46.4 °F49 %29.88 in10.0 miNNW (340°)11.5 mphPartly Cloudy
2:55 PM66.2 °F46.4 °F49 %29.88 in10.0 miNorth (360°)13.8 mph19.6 mphClear
3:15 PM66.2 °F46.4 °F49 %29.87 in10.0 miNorth (360°)12.7 mph17.3 mphClear
3:35 PM66.2 °F46.4 °F49 %29.87 in10.0 miNW (320°)12.7 mph18.4 mphClear
3:55 PM66.2 °F46.4 °F49 %29.87 in10.0 miNNW (330°)9.2 mph20.7 mphClear
4:15 PM66.2 °F46.4 °F49 %29.87 in10.0 miNW (320°)10.4 mphClear
4:35 PM68.0 °F46.4 °F46 %29.87 in10.0 miNW (320°)6.9 mphClear
4:55 PM68.0 °F46.4 °F46 %29.87 in10.0 miNW (320°)9.2 mphClear
5:15 PM66.2 °F46.4 °F49 %29.87 in10.0 miNW (310°)6.9 mphClear
5:35 PM66.2 °F46.4 °F49 %29.87 in10.0 miWNW (300°)6.9 mphClear
5:55 PM66.2 °F46.4 °F49 %29.87 in10.0 miNNW (330°)6.9 mphClear
6:15 PM66.2 °F48.2 °F52 %29.87 in10.0 miNW (310°)5.8 mphClear
6:35 PM66.2 °F46.4 °F49 %29.87 in10.0 miNW (310°)8.1 mphClear
6:55 PM64.4 °F48.2 °F56 %29.87 in10.0 miNW (320°)6.9 mphClear
7:15 PM64.4 °F48.2 °F56 %29.88 in10.0 miNNW (330°)3.5 mphClear
7:35 PM62.6 °F48.2 °F59 %29.88 in10.0 miNorth (350°)4.6 mphClear
7:55 PM62.6 °F50.0 °F63 %29.88 in10.0 miNorth (360°)3.5 mphClear
8:15 PM57.2 °F51.8 °F82 %29.89 in10.0 miSouth (190°)3.5 mphClear
8:35 PM57.2 °F51.8 °F82 %29.90 in10.0 miESE (120°)3.5 mphClear
8:55 PM55.4 °F51.8 °F88 %29.90 in10.0 miESE (120°)3.5 mphClear
9:15 PM55.4 °F51.8 °F88 %29.91 in10.0 miESE (120°)6.9 mphClear
9:35 PM55.4 °F50.0 °F82 %29.91 in10.0 miESE (120°)10.4 mphClear
9:55 PM55.4 °F50.0 °F82 %29.91 in10.0 miSE (140°)6.9 mphClear
10:15 PM53.6 °F50.0 °F88 %29.91 in10.0 miSE (130°)6.9 mphClear
10:35 PM53.6 °F48.2 °F82 %29.92 in10.0 miSE (140°)10.4 mphClear
10:55 PM53.6 °F48.2 °F82 %29.92 in10.0 miSE (140°)10.4 mphClear
11:15 PM53.6 °F48.2 °F82 %29.93 in10.0 miSSE (160°)4.6 mphClear
11:35 PM51.8 °F48.2 °F88 %29.93 in10.0 miSE (140°)8.1 mphClear
Hourly data recorded from KRUT, located miles away from Peru, Vermont







STORIES FROM OUR PARTNERS